Regional Weather Roundup
Issued by NWS

Home | Current Version | Previous Version | Text Only | Print | Product List | Glossary On
Versions: 1 2 3 4 5 6 7 8 9 10 11 12 13 14 15 16 17 18 19 20 21 22 23 24 25 26 27 28 29 30 31 32 33 34 35 36 37 38 39 40 41 42 43 44 45 46 47 48 49 50
000
ASUS43 KLSX 261410
RWRMO

WEATHER SUMMARY FOR MISSOURI
NATIONAL WEATHER SERVICE SPRINGFIELD MO
900 AM CDT THU MAY 26 2016

NOTE: "FAIR" INDICATES FEW OR NO CLOUDS BELOW 12,000 FEET WITH NO
       SIGNIFICANT WEATHER AND/OR OBSTRUCTIONS TO VISIBILITY.
       CURRENT SKY AND/OR WEATHER CONDITIONS ARE NOT AVAILABLE FOR
       CHILLICOTHE AND FARMINGTON.

MOZ001>031-035>038-043-044-053-054-261500-
...NORTHERN AND WESTERN MISSOURI...

CITY           SKY/WX    TMP DP  RH WIND       PRES   REMARKS
KANSAS CTY INT CLOUDY    67  63  87 S12       29.89F
KANSAS C DTWN  CLOUDY    70  63  78 S3        29.91R
LEE`S SUMMIT   SUNNY     70  64  81 S16       29.91F
ST JOSEPH      CLOUDY    69  63  81 E3        29.88R
CHILLICOTHE      N/A     74  61  63 S5        29.90R
KIRKSVILLE     PTSUNNY   71  67  87 E6        29.94R

$$
MOZ066>068-077>081-088>096-101>105-261500-
...SOUTHWEST MISSOURI...

CITY           SKY/WX    TMP DP  RH WIND       PRES   REMARKS
SPRINGFIELD    SUNNY     77  71  82 S8        29.98S
JOPLIN         CLOUDY    78  73  84 S5        29.95R
BRANSON        PTSUNNY   77  72  83 S7        29.99S

$$
MOZ032>034-039>042-045>050-055>058-069>072-261500-
...CENTRAL MISSOURI...

CITY           SKY/WX    TMP DP  RH WIND       PRES   REMARKS
COLUMBIA       CLOUDY    69  64  84 SE3       29.97S
JEFFERSON CITY CLOUDY    70  64  81 SE9       29.97F
ROLLA          MOSUNNY   70  66  87 S6        30.01R
SEDALIA        CLOUDY    66  61  84 S13       29.93R
WHITEMAN AFB   MOSUNNY   66  65  98 SW14      29.90F
WARRENSBURG    CLOUDY    68  61  77 S13G18    29.91F

$$
MOZ051-052-059>065-261500-
...EAST CENTRAL MISSOURI...

CITY           SKY/WX    TMP DP  RH WIND       PRES   REMARKS
ST LOUIS INTL  TSTM      68  63  84 SE9       29.99F
SPIRIT OF STL  LGT RAIN  67  64  90 E12       29.92F
ST CHARLES     LGT RAIN  67  65  93 S12       29.94F

$$
MOZ072>076-082>087-097>100-106>115-261500-
...SOUTH CENTRAL AND SOUTHEAST MISSOURI...

CITY           SKY/WX    TMP DP  RH WIND       PRES   REMARKS
CAPE GIRARDEAU CLOUDY    74  67  78 S10       30.04R
FARMINGTON     LGT RAIN  66  64  94 E6        30.04R
POPLAR BLUFF   CLOUDY    72  68  87 S5        30.03R
WEST PLAINS    PTSUNNY   76  71  85 S7        30.04R

$$




USA.gov is the U.S. government's official web portal to all federal, state and local government web resources and services.